map of MKZ home
MKZ - Airport
Location
City:  Batu Berendam, Melaka, Malaysia
Near (Alt.):Malacca
Name:Malacca International Airport
Old (Alt.):Batu Berendam Airport
ICAO:WMKM
IATA:MKZ

Details
Type:Airport (Aerodrome, Airfield)
Use:Public/Civil, International (customs port of entry)
Latitude:215'47"N (2.263056)
Longitude:10215'09"E (102.252500)
Elevation:40 ft (12 m)
Variation:0.06E (WMM2015 magnetic declination)
0.01 annual change
Runways:1
Longest:7005 × 148 ft (2135 × 45 m), paved

Time
Time Zone:UTC+8
Local Time:

Weather
METAR:WMKM 181200Z VRB03KT 9999 FEW028 SCT140 BKN270 30/24 Q1009
TAF:WMKM 172300Z 1800/1900 24005KT 9999 FEW020 SCT140 BKN280

Related Locations
Nearby:
Farthest:TSC: 12434 mi / 20010 km
Taisha, S, EC

Find:

   beyond  
but within

Other Information
Maps:
NOTAMs:
Links:
Sources:

  
flag of Malaysia
flag of Melaka
  

Sectional Chart

Flight Planning
at skyvector.com

Satellite Image

Google Maps Satellite view

 

Copyright © 2004-2017 Karl L. Swartz. All rights reserved.
The Great Circle Mapper name and logo are trademarks of the Great Circle Mapper.
All other trademarks mentioned herein belong to their respective owners.
Please see credits for attibutions and further copyright information.

  Follow gcmap on Facebook Follow gcmap on Twitter Follow gcmap on Google+ GCmap on LinkedIn

hCard Microformat

Geo Microformat